Weather History for KINW - October, 2012

Change the Weather History Date:

Thursday, October 11, 2012

  Actual Average Record
Temperature  
Mean Temperature 64 °F 58 °F  
Max Temperature 81 °F 75 °F 88 °F (1996)
Min Temperature 46 °F 41 °F 25 °F (1973)
Degree Days  
Heating Degree Days 1 7  
Month to date heating degree days 11 58  
Since 1 July heating degree days 13 89  
Cooling Degree Days 0 0  
Month to date cooling degree days 19 6  
Year to date cooling degree days 1442 1207  
Growing Degree Days 14 (Base 50)    
Moisture  
Dew Point 34 °F    
Average Humidity 35    
Maximum Humidity 53    
Minimum Humidity 16    
Precipitation  
Precipitation T in 0.02 in 0.69 in (1986)
Month to date precipitation T 0.21  
Year to date precipitation 4.74 5.62  
Sea Level Pressure  
Sea Level Pressure 29.93 in    
Wind  
Wind Speed 9 mph (SE)    
Max Wind Speed 26 mph    
Max Gust Speed 32 mph    
Visibility 10 miles    
Events Rain    
T = Trace of Precipitation, MM = Missing Value Source: NWS Daily Summary

Daily Weather History Graph

Daily Weather History Graph

Search for Another Location

Airport or City:

Trip Planner

Search our weather history database for the weather conditions in past years. The results will help you decide how hot, cold, wet, or windy it might be!

Date:

Astronomy

Oct. 11, 2012 Rise Set
Actual Time 6:25 AM MST 5:52 PM MST
Civil Twilight 6:00 AM MST 6:17 PM MST
Nautical Twilight 5:31 AM MST 6:47 PM MST
Astronomical Twilight 5:01 AM MST 7:16 PM MST
Moon 2:17 AM MST (10/11) 3:23 PM MST (10/11)
Length of Visible Light 12h 17m
Length of Day
11h 26m
Waning Crescent, 17% of the Moon is Illuminated
Oct 11
Waning Crescent
Oct 15
New
Oct 21
First Quarter
Oct 29
Full
Nov 6
Last Quarter

Hourly Weather History & Observations

Time (MST) Temp. Windchill Dew Point Humidity Pressure Visibility Wind Dir Wind Speed Gust Speed Precip Events Conditions
12:56 AM 51.1 °F - 32.0 °F 48% 29.90 in 10.0 mi ESE 5.8 mph - N/A   Clear
1:56 AM 52.0 °F - 32.0 °F 47% 29.90 in 10.0 mi SE 9.2 mph - N/A   Clear
2:56 AM 51.8 °F - 32.0 °F 47% 30.06 in 10.0 mi SSE 4.6 mph - N/A   Clear
3:56 AM 46.9 °F - 28.9 °F 50% 29.91 in 10.0 mi ESE 4.6 mph - N/A   Clear
4:56 AM 46.4 °F 43.5 °F 28.4 °F 50% 30.07 in 10.0 mi ESE 5.8 mph - N/A   Clear
5:56 AM 46.9 °F - 30.0 °F 52% 29.94 in 10.0 mi SSE 6.9 mph - N/A   Clear
6:56 AM 50.0 °F - 30.0 °F 46% 29.97 in 10.0 mi SE 8.1 mph - N/A   Clear
7:56 AM 52.0 °F - 28.9 °F 41% 29.98 in 10.0 mi East 10.4 mph - N/A   Mostly Cloudy
8:56 AM 55.9 °F - 30.9 °F 39% 29.99 in 10.0 mi ESE 3.5 mph - N/A   Overcast
9:56 AM 60.1 °F - 30.9 °F 33% 29.99 in 10.0 mi ESE 9.2 mph - 0.00 in   Overcast
10:56 AM 69.8 °F - 33.8 °F 27% 30.08 in 10.0 mi ENE 9.2 mph - N/A   Mostly Cloudy
11:56 AM 75.0 °F - 35.1 °F 23% 29.88 in 10.0 mi SSE 9.2 mph 18.4 mph N/A   Partly Cloudy
12:56 PM 77.0 °F - 34.0 °F 21% 29.84 in 10.0 mi South 9.2 mph 24.2 mph N/A   Scattered Clouds
1:56 PM 78.1 °F - 33.1 °F 19% 29.81 in 10.0 mi SSE 13.8 mph 26.5 mph N/A   Partly Cloudy
2:56 PM 78.1 °F - 28.9 °F 17% 29.80 in 10.0 mi SSE 23.0 mph 32.2 mph N/A   Mostly Cloudy
3:56 PM 75.2 °F - 30.2 °F 19% 29.97 in 10.0 mi SSE 18.4 mph 27.6 mph N/A   Scattered Clouds
4:56 PM 73.0 °F - 33.1 °F 23% 29.82 in 10.0 mi SE 23.0 mph 31.1 mph N/A   Clear
5:56 PM 68.0 °F - 33.8 °F 28% 29.98 in 10.0 mi SE 16.1 mph - N/A   Clear
6:56 PM 64.9 °F - 34.0 °F 32% 29.87 in 10.0 mi SE 9.2 mph - N/A   Clear
7:56 PM 62.1 °F - 34.0 °F 35% 29.88 in 10.0 mi SE 5.8 mph - N/A   Partly Cloudy
8:56 PM 60.8 °F - 33.8 °F 36% 30.02 in 10.0 mi ESE 3.5 mph - N/A   Clear
9:56 PM 59.0 °F - 35.6 °F 42% 30.03 in 10.0 mi West 3.5 mph - N/A   Clear
10:56 PM 57.0 °F - 46.0 °F 67% 29.87 in 10.0 mi Calm Calm - 0.00 in   Partly Cloudy
11:56 PM 55.0 °F - 48.0 °F 77% 29.86 in 10.0 mi WSW 4.6 mph - 0.01 in Rain Light Rain